Location: Rodanthe
(35.5920°N, 75.4670°W)
Time: 16:46:58
(UTC-04:00)

Daily predictions for brighter satellites

Satellite Brightness Start Highest point End
(mag) Time Altitude Azimuth Time Altitude Azimuth Time Altitude Azimuth
Lacrosse 5 3.1 19:53:44 10° NNW 19:58:02 27° NE 20:02:19 10° E
Iridium 4 Rocket 4.4 19:55:25 10° NNE 19:59:09 22° E 20:02:38 10° SE
Cosmos 2227 Rocket 2.2 19:54:53 10° NNW 20:00:34 74° ENE 20:06:10 10° SSE
Spot 2 Rocket 3.5 19:55:49 10° SSE 20:00:54 81° ENE 20:06:00 10° N
CZ-3C R/B 4.4 17:59:39 10° WSW 20:01:33 51° SSW 20:12:06 10° SE
Cosmos 1500 4.3 20:00:50 10° SE 20:03:50 23° E 20:06:52 10° NE
SL-24 R/B - RUBIN 2 4.5 20:00:03 10° SSW 20:05:46 84° WNW 20:12:13 10° NNE
Cosmos 1975 3.2 20:02:38 10° SSE 20:06:32 44° E 20:10:27 10° NNE
CZ-2D R/B 4.1 20:05:08 10° SE 20:08:35 32° ENE 20:12:04 10° N
Meteor 2-15 4.5 20:02:31 10° N 20:08:36 88° E 20:14:39 10° S
Lacrosse 5 rocket 1.1 20:07:25 10° NW 20:11:08 80° SW 20:14:43 10° SE
Cosmos 2084 4.0 20:07:34 10° NNW 20:11:27 41° NE 20:15:15 12° SE
OTV 4 1.9 20:10:49 10° W 20:13:26 28° SSW 20:16:01 10° SE
FengYun 1-2 T 4.2 20:08:43 10° SSE 20:14:19 74° ENE 20:19:55 10° N
Centaur D-1A AC-32 3.7 20:10:54 10° WSW 20:14:45 22° SSW 20:17:19 10° SE
Cosmos 2297 Rocket 2.2 20:09:36 10° NNW 20:15:15 70° ENE 20:20:53 10° SSE
Meteor 2-15 Rocket 4.4 20:09:58 10° N 20:16:04 86° E 20:22:08 10° S
Cosmos 1605 Rocket 4.0 20:10:08 10° S 20:16:28 81° E 20:22:44 10° N
Cosmos 2082 3.8 20:12:24 10° NNW 20:18:03 84° WSW 20:23:40 10° SSE
Cosmos 2298 Rocket 4.3 20:17:17 10° N 20:22:26 49° ENE 20:27:31 10° SE
Cosmos 1626 Rocket 3.6 20:18:26 10° N 20:22:45 57° E 20:27:00 10° SSE
USA 186 2.3 20:21:39 15° SE 20:23:41 31° ENE 20:26:16 10° N
Cosmos 1455 Rocket 4.2 20:20:06 10° SSW 20:24:16 48° W 20:28:30 10° N
Cosmos 220 Rocket 3.9 20:20:05 10° NNW 20:24:18 74° ENE 20:28:29 10° SSE
ALOS 2.3 20:20:06 10° SSE 20:24:43 64° ENE 20:29:20 10° N
Cosmos 2100 Rocket 4.4 20:22:22 10° SSE 20:28:09 40° E 20:33:55 10° NNE
OAO 2 Rocket 3.3 20:24:52 10° W 20:29:52 84° S 20:33:36 18° E
ERS-1 Rocket 4.1 20:28:46 17° ESE 20:31:19 25° ENE 20:35:21 10° NNE
Cosmos 1515 3.9 20:27:40 10° N 20:31:24 49° E 20:34:41 13° SSE
Cosmos 1602 Rocket 3.5 20:28:59 10° N 20:33:27 77° E 20:37:50 10° S
Meteor 1-12 Rocket 4.4 20:28:33 10° SSW 20:34:17 79° W 20:40:10 10° N
Cosmos 1763 Rocket 3.7 20:38:15 10° S 20:43:05 45° ESE 20:47:55 10° NNE
Cosmos 2061 Rocket 4.2 20:38:23 10° SSE 20:44:26 50° E 20:50:26 10° NNE
Cosmos 1697 Rocket 3.0 20:39:51 10° SSW 20:45:29 73° WNW 20:51:09 10° NNE
Cosmos 2150 Rocket 3.9 20:42:14 10° NNW 20:47:24 73° ENE 20:51:18 18° SSE
Cosmos 1939 Rocket 4.0 20:47:20 25° E 20:47:56 26° ENE 20:51:23 10° NNE
Cosmos 1743 3.0 20:45:15 16° SSE 20:48:08 46° E 20:51:54 10° NNE
Tiangong 1 1.9 20:45:52 10° NW 20:48:50 40° NNE 20:49:40 32° ENE
Cosmos 1459 Rocket 3.9 20:45:41 10° S 20:51:36 60° E 20:57:35 10° NNE
Cosmos 1066 Rocket 4.2 20:50:15 10° N 20:56:00 76° E 21:01:03 14° SSE
Cosmos 1898 Rocket 3.5 20:52:25 10° NNW 20:57:43 84° WSW 21:01:43 18° SSE
SL-16 R/B 3.0 21:00:03 28° E 21:00:03 28° E 21:04:23 10° NE
Cosmos 1606 Rocket 3.7 21:01:24 32° SSE 21:03:05 52° E 21:07:23 10° NNE
Cosmos 2058 Rocket 4.0 21:03:44 30° ENE 21:03:44 30° ENE 21:07:05 10° NNE
Cosmos 2098 Rocket 4.4 21:02:47 24° SE 21:06:22 41° E 21:11:45 10° NNE
Cosmos 841 Rocket 3.4 21:03:05 10° S 21:08:17 71° ESE 21:13:29 10° NNE
Cosmos 1980 Rocket 2.3 21:04:17 10° SSW 21:09:56 76° WNW 21:15:39 10° NNE
DELTA 2 R/B (1) 3.9 21:07:13 10° WNW 21:12:39 54° SSW 21:14:35 36° SSE
ASTEX 1 4.2 21:08:27 10° NNE 21:12:21 33° ENE 21:12:21 33° ENE
H-2A R/B 4.4 21:13:17 10° SSW 21:16:48 33° W 21:20:23 10° NNW
RESURS DK-1 2.5 21:12:57 10° NNW 21:17:04 69° WSW 21:18:10 46° S
Cosmos 1726 Rocket 3.4 21:24:43 65° SSE 21:25:19 81° E 21:29:44 10° N
Cosmos 1666 4.1 21:29:44 29° NNE 21:29:44 29° NNE 21:31:44 10° NNE
SL-08 R/B 4.3 21:29:48 28° S 21:33:15 77° E 21:39:25 10° N
Cosmos 2263 Rocket 3.7 21:32:55 10° N 21:36:35 22° NE 21:36:35 22° NE
Cosmos 1802 Rocket 4.3 21:31:46 10° SSW 21:38:07 67° W 21:44:32 10° N
Lacrosse 5 2.5 21:36:19 10° NW 21:41:10 47° SW 21:41:56 43° SSW
Cosmos 2016 Rocket 4.1 21:37:16 12° SSW 21:42:53 73° W 21:49:06 10° N
Cosmos 1825 Rocket 4.2 21:39:15 10° NNW 21:43:32 51° W 21:44:12 46° SW
Cosmos 2322 Rocket 2.0 21:43:34 58° S 21:44:42 80° ESE 21:50:20 10° NNE
SPOT 5 3.2 21:47:47 56° NNE 21:47:47 56° NNE 21:51:47 10° N
Cosmos 1340 3.8 21:44:23 10° NNW 21:47:32 42° WNW 21:47:32 42° WNW
Envisat 3.1 21:49:38 62° SW 21:50:14 69° WSW 21:55:19 10° NNW
MetOp-A 4.2 21:52:04 62° NE 21:52:04 62° NE 21:56:52 10° N
H-2A R/B 3.0 21:55:01 41° NNW 21:55:01 41° NNW 21:57:48 10° NNW
Cosmos 1953 Rocket 4.2 21:51:30 10° NNW 21:55:42 52° W 21:55:42 52° W
Meteor 2-9 Rocket 4.3 21:57:29 55° SW 21:58:34 70° W 22:03:57 10° N
Terra 4.3 22:03:43 12° NNE 22:03:43 12° NNE 22:04:08 10° NNE
Meteor 1-15 Rocket 4.4 22:02:12 60° SW 22:03:12 75° W 22:09:05 10° N
ERS-1 Rocket 4.4 22:08:47 29° WSW 22:09:54 32° W 22:14:24 10° NW
H-2A R/B 4.0 22:25:30 19° NNE 22:25:30 19° NNE 22:27:06 10° N
Tsikada Rocket 4.4 22:23:59 10° NNW 22:30:14 58° W 22:30:24 57° W
ARGOS 4.3 22:39:04 39° NNW 22:39:04 39° NNW 22:42:26 10° NNW
USA 215 4.5 22:37:03 29° NE 22:37:25 29° NNE 22:42:53 10° NNW
SL-16 R/B 3.6 22:41:42 28° W 22:43:31 34° WNW 22:48:39 10° N
Cosmos 2360 Rocket 4.3 22:58:32 18° NNE 22:58:32 18° NNE 22:59:57 10° NNE
Cosmos 2263 Rocket 4.2 23:16:02 10° NW 23:18:17 24° NW 23:18:17 24° NW
